This demonstration page uses our WeatherBlox Daily Observations layout. Learn more.

Left ArrowRight Arrow

39.12711, -84.51439

Hourly Observations for October 18, 2021

Temp ( °F °C ) Dew Point ( °F °C ) Humidity (%) Winds ( mph kmh ) Pressure ( in mb ) Visibility ( mi km ) Precip ( " mm )
12:53 am 00:53 Clear 44 6.7 44 6.7 100 100 Calm 30.16 1022 10 16 0.00 0.00
1:53 am 01:53 Clear 43 6.1 42 5.6 97 97 Calm 30.17 1022 8 13 0.00 0.00
2:42 am 02:42 Clear with Mist and Fog 42 5.6 42 5.6 100 100 Calm 30.19 1022 2 3 0.00 0.00
2:53 am 02:53 Clear with Mist and Fog 42 5.6 42 5.6 100 100 Calm 30.17 1022 1 2 0.00 0.00
3:16 am 03:16 Clear with Mist and Fog 43 6.1 43 6.1 100 100 Calm 30.19 1022 4 6 0.00 0.00
3:35 am 03:35 Clear with Mist and Fog 41 5 41 5 100 100 Calm 30.19 1022 2 3 0.00 0.00
3:53 am 03:53 Clear with Mist and Fog 42 5.6 42 5.6 100 100 Calm 30.16 1021 1 2 0.00 0.00
4:08 am 04:08 Clear with Mist and Fog 41 5 41 5 100 100 Calm 30.19 1022 1 1 0.00 0.00
4:25 am 04:25 Mostly Cloudy with Fog 41 5 41 5 100 100 Calm 30.19 1022 1 1 0.00 0.00
4:35 am 04:35 Clear with Mist and Fog 41 5 41 5 100 100 Calm 30.19 1022 1 2 0.00 0.00
4:43 am 04:43 Mostly Cloudy with Mist and Fog 41 5 41 5 100 100 Calm 30.19 1022 1 1 0.00 0.00
4:53 am 04:53 Partly Cloudy with Mist and Fog 40 4.4 40 4.4 100 100 Calm 30.17 1022 1 2 0.00 0.00
4:59 am 04:59 Mostly Cloudy with Mist and Fog 41 5 41 5 100 100 Calm 30.19 1022 2 3 0.00 0.00
5:08 am 05:08 Cloudy 42 5.6 42 5.6 100 100 Calm 30.19 1022 10 16 0.00 0.00
5:35 am 05:35 Partly Cloudy 41 5 41 5 100 100 Calm 30.19 1022 10 16 0.00 0.00
5:53 am 05:53 Mostly Clear 40 4.4 40 4.4 100 100 Calm 30.17 1022 10 16 0.00 0.00
6:20 am 06:20 Clear with Mist and Fog 40 4.4 40 4.4 100 100 Calm 30.20 1023 2 3 0.00 0.00
6:27 am 06:27 Clear with Mist and Fog 40 4.4 40 4.4 100 100 Calm 30.20 1023 3 5 0.00 0.00
6:53 am 06:53 Clear with Mist and Fog 41 5 41 5 100 100 Calm 30.19 1022 6 10 0.00 0.00
7:33 am 07:33 Mostly Cloudy with Mist and Fog 41 5 41 5 100 100 Calm 30.21 1023 4 6 0.00 0.00
7:35 am 07:35 Partly Cloudy with Mist and Fog 41 5 41 5 100 100 Calm 30.21 1023 2 3 0.00 0.00
7:38 am 07:38 Mostly Cloudy with Mist and Fog 40 4.4 40 4.4 100 100 Calm 30.21 1023 1 1 0.00 0.00
7:53 am 07:53 Cloudy with Fog 40 4.4 40 4.4 100 100 Calm 30.19 1023 1 1 0.00 0.00
8:48 am 08:48 Sunny 43 6 43 6 100 100 Calm 30.22 1023 9 14 0.00 0.00
8:53 am 08:53 Sunny 43 6.1 43 6.1 100 100 Calm 30.21 1023 10 16 0.00 0.00
9:53 am 09:53 Sunny 50 10 47 8.3 89 89 Calm 30.22 1023 10 16 0.00 0.00
10:53 am 10:53 Sunny 56 13.3 49 9.4 77 77 Calm 30.22 1023 10 16 0.00 0.00
11:53 am 11:53 Sunny 62 16.7 47 8.3 58 58 VRB 3 6 30.21 1023 10 16 0.00 0.00
12:53 pm 12:53 Sunny 66 18.9 44 6.7 45 45 W 8 13 30.19 1022 10 16 0.00 0.00
1:53 pm 13:53 Sunny 69 20.6 41 5 36 36 WNW 6 9 30.17 1022 10 16 0.00 0.00
2:53 pm 14:53 Sunny 69 20.6 42 5.6 38 38 W 7 11 30.15 1021 10 16 0.00 0.00
3:53 pm 15:53 Sunny 70 21.1 40 4.4 34 34 VRB 6 9 30.14 1021 10 16 0.00 0.00
4:53 pm 16:53 Sunny 69 20.6 43 6.1 39 39 SW 8 13 30.13 1020 10 16 0.00 0.00
5:53 pm 17:53 Sunny 67 19.4 43 6.1 42 42 W 7 11 30.14 1021 10 16 0.00 0.00
6:53 pm 18:53 Sunny 60 15.6 50 10 70 70 Calm 30.14 1021 10 16 0.00 0.00
7:53 pm 19:53 Clear 54 12.2 49 9.4 83 83 Calm 30.15 1021 10 16 0.00 0.00
8:53 pm 20:53 Clear 52 11.1 49 9.4 89 89 Calm 30.16 1021 10 16 0.00 0.00
9:53 pm 21:53 Clear 49 9.4 48 8.9 97 97 Calm 30.17 1022 10 16 0.00 0.00
10:53 pm 22:53 Clear 48 8.9 48 8.9 100 100 Calm 30.18 1022 10 16 0.00 0.00
11:53 pm 23:53 Clear 47 8.3 47 8.3 100 100 Calm 30.17 1022 10 16 0.00 0.00

Powered by AerisWeather